DW4312 Weather Reports


time (UTC)temp
C
wind
direction
speed
KPH
gust
KPH
rain 1hr
cm
rain 24hr
cm
rain mn
cm
humidity
%
barometer
mb
20240222111138 7 23 3.2 6.4 0.00 1.40 0.00 85 1020.0
20240222110657 7 22 4.8 6.4 0.00 1.40 0.00 85 1020.0
20240222110139 7 22 3.2 6.4 0.00 1.40 0.00 85 1020.0
20240222105638 7 30 3.2 6.4 0.00 1.40 0.00 85 1020.0
20240222105141 7 30 4.8 6.4 0.00 1.40 0.00 85 1020.0
20240222104640 7 30 4.8 6.4 0.00 1.40 0.00 85 1020.1
20240222104145 7 30 3.2 4.8 0.00 1.40 0.00 84 1020.1
20240222103623 7 30 3.2 6.4 0.00 1.40 0.00 85 1020.1
20240222103126 7 30 3.2 6.4 0.00 1.40 0.00 85 1020.4
20240222102625 7 30 3.2 6.4 0.00 1.40 0.00 86 1020.4
20240222102131 7 36 3.2 6.4 0.00 1.40 0.00 86 1020.4
20240222101635 7 36 3.2 6.4 0.00 1.40 0.00 86 1020.6
20240222101138 7 36 4.8 6.4 0.00 1.40 0.00 86 1020.6
20240222100657 7 36 3.2 3.2 0.00 1.40 0.00 85 1020.6
20240222100122 7 36 3.2 3.2 0.00 1.40 0.00 85 1020.5
20240222095641 7 36 1.6 6.4 0.00 1.40 0.00 85 1020.5
20240222095124 7 36 1.6 6.4 0.00 1.40 0.00 86 1020.5
20240222094625 7 36 3.2 4.8 0.00 1.40 0.00 87 1020.7
20240222094128 7 36 3.2 6.4 0.00 1.40 0.00 87 1020.7
20240222093627 7 36 3.2 6.4 0.00 1.40 0.00 86 1020.7
20240222093130 7 36 3.2 3.2 0.00 1.40 0.00 84 1020.7
20240222092628 7 36 1.6 3.2 0.00 1.40 0.00 85 1020.7
20240222092131 8 36 0.0 4.8 0.00 1.47 0.00 83 1020.7
20240222091630 8 36 1.6 6.4 0.00 1.47 0.00 82 1020.9
20240222091137 8 18 3.2 6.4 0.00 1.47 0.00 83 1020.9
20240222090640 8 19 1.6 6.4 0.00 1.47 0.00 84 1020.9
20240222090144 8 42 1.6 4.8 0.00 1.47 0.00 85 1021.0
20240222085625 8 42 1.6 4.8 0.00 1.47 0.00 84 1021.0
20240222085128 8 42 3.2 6.4 0.00 1.47 0.00 83 1021.0
20240222084628 8 42 4.8 6.4 0.00 1.47 0.00 82 1021.2
20240222084131 8 42 1.6 3.2 0.00 1.47 0.00 82 1021.2
20240222083650 8 42 3.2 4.8 0.00 1.47 0.00 83 1021.2
20240222083132 8 42 3.2 6.4 0.00 1.47 1.45 83 1021.1
20240222082634 8 42 3.2 6.4 0.00 1.47 1.45 84 1021.1
20240222082157 8 42 1.6 3.2 0.00 1.57 1.45 83 1021.1
20240222081635 8 42 3.2 6.4 0.00 1.57 1.45 82 1021.0
20240222081141 8 42 3.2 6.4 0.00 1.57 1.45 81 1021.0
20240222080620 8 47 1.6 6.4 0.00 1.57 1.45 82 1021.0
20240222080128 8 39 3.2 6.4 0.00 1.57 1.45 85 1021.2
20240222075629 8 40 3.2 6.4 0.00 1.57 1.45 85 1021.2
20240222075131 8 18 3.2 6.4 0.00 1.57 1.45 84 1021.2
20240222074631 8 32 3.2 6.4 0.00 1.57 1.45 83 1021.3
20240222074133 8 32 1.6 6.4 0.00 1.57 1.45 84 1021.3
20240222073652 8 15 0.0 0.0 0.00 1.57 1.45 86 1021.3
20240222073134 8 13 0.0 0.0 0.00 1.57 1.45 87 1021.3
20240222072634 8 13 0.0 0.0 0.00 1.57 1.45 87 1021.3
20240222072201 8 13 0.0 0.0 0.00 1.65 1.45 87 1021.3
20240222071640 8 13 0.0 0.0 0.00 1.65 1.45 87 1021.2
20240222071144 8 13 0.0 0.0 0.00 1.65 1.45 87 1021.2
20240222070622 8 13 0.0 0.0 0.00 1.65 1.45 87 1021.2
20240222070125 8 347 0.0 0.0 0.00 1.65 1.45 86 1020.8
20240222065624 8 15 0.0 0.0 0.00 1.65 1.45 85 1020.8
20240222065151 9 15 0.0 0.0 0.00 1.65 1.45 85 1020.8
20240222064629 8 28 0.0 0.0 0.00 1.65 1.45 86 1021.1
20240222064136 8 28 0.0 0.0 0.00 1.65 1.45 86 1021.1
20240222063635 9 28 0.0 0.0 0.00 1.65 1.45 86 1021.1
20240222063138 9 28 0.0 1.6 0.00 1.65 1.45 85 1020.8
20240222062637 9 45 0.0 4.8 0.00 1.65 1.45 84 1020.8
20240222062141 10 45 0.0 6.4 0.00 1.75 1.45 84 1020.8
20240222061641 10 44 1.6 8.0 0.00 1.75 1.45 84 1021.1
20240222061125 10 33 4.8 8.0 0.00 1.75 1.45 85 1021.1
20240222060624 10 22 4.8 8.0 0.00 1.75 1.45 85 1021.1
20240222060126 9 28 3.2 8.0 0.00 1.75 1.45 86 1021.2
20240222055629 9 19 3.2 8.0 0.00 1.75 1.45 86 1021.2
20240222055131 10 43 4.8 8.0 0.00 1.75 1.45 86 1021.2
20240222054630 9 32 3.2 9.7 0.00 1.75 1.45 86 1021.1
20240222054133 9 19 4.8 9.7 0.00 1.75 1.45 87 1021.1
20240222053636 9 30 3.2 3.2 0.00 1.75 1.45 87 1021.1
20240222053121 9 15 3.2 4.8 0.00 1.75 1.45 87 1020.8
20240222052623 9 27 1.6 4.8 0.00 1.75 1.45 87 1020.8
20240222052125 9 27 3.2 4.8 0.00 1.75 1.45 87 1020.8
20240222051643 9 22 3.2 6.4 0.00 1.75 1.45 87 1020.7
20240222051145 9 25 3.2 6.4 0.00 1.75 1.45 87 1020.7
20240222050644 9 25 3.2 3.2 0.00 1.75 1.45 87 1020.7
20240222050147 9 16 1.6 3.2 0.00 1.75 1.45 87 1020.6
20240222045623 9 22 1.6 4.8 0.00 1.75 1.45 87 1020.6
20240222045126 9 23 3.2 4.8 0.00 1.75 1.45 87 1020.6
20240222044626 10 23 1.6 6.4 0.00 1.75 1.45 87 1019.8
20240222044129 10 28 3.2 6.4 0.00 1.75 1.45 87 1019.8
20240222043626 10 19 0.0 0.0 0.00 1.75 1.45 87 1019.8
20240222043129 9 30 0.0 0.0 0.00 1.75 1.45 88 1020.0
20240222042629 9 22 0.0 0.0 0.00 1.75 1.45 88 1020.0
20240222042131 9 21 0.0 0.0 0.00 2.01 1.45 88 1020.0
20240222041636 9 24 0.0 0.0 0.00 2.01 1.45 88 1020.8
20240222041141 9 24 0.0 0.0 0.00 2.01 1.45 89 1020.8
20240222040640 10 24 0.0 0.0 0.00 2.01 1.45 88 1020.8
20240222040122 10 24 0.0 0.0 0.00 2.01 1.45 88 1020.4
20240222035623 10 24 0.0 0.0 0.00 2.01 1.45 88 1020.4
20240222035150 10 24 0.0 0.0 0.00 2.01 1.45 88 1020.4
20240222034627 10 24 0.0 0.0 0.00 2.01 1.45 88 1019.5
20240222034129 10 24 0.0 0.0 0.00 2.01 1.45 88 1019.5
20240222033628 10 29 0.0 0.0 0.00 2.01 1.45 88 1019.5
20240222033132 10 29 0.0 0.0 0.00 2.01 1.45 88 1019.0
20240222032633 10 29 0.0 1.6 0.00 2.01 1.45 87 1019.0
20240222032137 10 29 0.0 3.2 0.00 2.11 1.45 86 1019.0
20240222031636 10 29 1.6 3.2 0.00 2.11 1.45 86 1019.1
20240222031123 10 29 3.2 3.2 0.00 2.11 1.45 87 1019.1
20240222030622 10 36 0.0 0.0 0.00 2.11 1.45 87 1019.1
20240222030125 10 28 0.0 0.0 0.00 2.11 1.45 87 1020.1
20240222025625 10 355 0.0 0.0 0.00 2.11 1.45 88 1020.1
20240222025129 10 78 0.0 0.0 0.00 2.11 1.45 87 1020.1
20240222024631 10 78 0.0 0.0 0.00 2.11 1.45 87 1019.9
20240222024133 11 78 0.0 0.0 0.00 2.11 1.45 86 1019.9
20240222023633 11 78 0.0 1.6 0.00 2.11 1.45 86 1019.9
20240222023156 11 78 0.0 3.2 0.00 2.11 1.45 86 1020.0
20240222022654 11 78 1.6 3.2 0.00 2.11 1.45 85 1020.0
20240222022134 11 98 0.0 9.7 0.00 2.29 1.45 84 1020.0
20240222021633 11 107 3.2 9.7 0.00 2.29 1.45 83 1020.1
20240222021137 12 55 1.6 9.7 0.00 2.29 1.45 82 1020.1
20240222020636 12 81 3.2 8.0 0.00 2.29 1.45 82 1020.1
20240222020122 12 112 4.8 8.0 0.00 2.29 1.45 80 1020.1
20240222015641 12 130 1.6 8.0 0.00 2.29 1.45 79 1020.1
20240222015127 12 101 4.8 11.3 0.00 2.29 1.45 78 1020.1
20240222014624 12 86 3.2 11.3 0.00 2.29 1.45 77 1019.6
20240222014150 13 86 1.6 9.7 0.00 2.29 1.45 77 1019.6
20240222013627 13 92 6.4 9.7 0.00 2.29 1.45 75 1019.6
20240222013131 13 134 4.8 9.7 0.00 2.29 1.45 74 1018.9
20240222012633 14 214 3.2 9.7 0.00 2.29 1.45 74 1018.9
20240222012136 14 94 3.2 6.4 0.00 2.36 1.45 73 1018.9
20240222011655 14 146 1.6 9.7 0.00 2.36 1.45 72 1018.7
20240222011138 14 215 6.4 9.7 0.00 2.36 1.45 70 1018.7
20240222010619 15 219 3.2 11.3 0.00 2.36 1.45 68 1018.7
20240222010124 15 144 4.8 11.3 0.00 2.36 1.45 70 1018.7
20240222005624 15 223 3.2 11.3 0.00 2.36 1.45 68 1018.7
20240222005130 15 204 3.2 11.3 0.00 2.36 1.45 67 1018.7
20240222004633 15 202 6.4 11.3 0.00 2.36 1.45 66 1018.3
20240222004135 15 217 3.2 8.0 0.00 2.36 1.45 69 1018.3
20240222003634 15 145 4.8 9.7 0.00 2.36 1.45 69 1018.3
20240222003137 15 141 6.4 9.7 0.00 2.36 1.45 68 1018.0
20240222002636 15 171 1.6 8.0 0.00 2.36 1.45 66 1018.0
20240222002122 15 155 4.8 8.0 0.00 2.36 1.45 65 1018.0
20240222001622 15 198 1.6 9.7 0.00 2.36 1.45 66 1018.4
20240222001147 15 167 4.8 9.7 0.00 2.36 1.45 66 1018.4
20240222000626 15 87 4.8 11.3 0.00 2.36 1.45 67 1018.4
20240222000128 15 142 8.0 11.3 0.00 2.36 1.45 67 1018.2
20240221235627 15 138 4.8 14.5 0.00 2.36 1.45 68 1018.2
20240221235134 15 215 8.0 14.5 0.00 2.36 1.45 66 1018.2
20240221234637 16 245 3.2 11.3 0.00 2.36 1.45 67 1018.4
20240221234139 16 128 4.8 11.3 0.00 2.36 1.45 67 1018.4
20240221233639 15 233 6.4 11.3 0.00 2.36 1.45 67 1018.4
20240221233121 15 209 4.8 9.7 0.00 2.36 1.45 66 1018.7
20240221232640 15 239 3.2 9.7 0.00 2.36 1.45 66 1018.7
20240221232123 15 157 1.6 8.0 0.00 2.44 1.45 68 1018.7
20240221231625 15 67 3.2 8.0 0.00 2.44 1.45 67 1019.0
20240221231129 15 92 4.8 12.9 0.00 2.44 1.45 67 1019.0
20240221230648 15 157 6.4 12.9 0.00 2.44 1.45 67 1019.0
20240221230129 15 219 3.2 9.7 0.00 2.44 1.45 66 1019.3
20240221225629 15 140 4.8 9.7 0.00 2.44 1.45 69 1019.3
20240221225133 15 219 4.8 16.1 0.00 2.44 1.45 71 1019.3
20240221224631 14 212 3.2 16.1 0.00 2.44 1.45 73 1019.4
20240221224138 14 191 6.4 12.9 0.00 2.44 1.45 73 1019.4
20240221223700 14 212 8.0 12.9 0.00 2.44 1.45 70 1019.4
20240221223142 15 165 3.2 12.9 0.00 2.44 1.45 71 1019.1
20240221222621 15 200 3.2 12.9 0.00 2.44 1.45 72 1019.1
20240221222124 15 211 4.8 14.5 0.00 3.68 1.45 71 1019.1
20240221221623 15 94 6.4 14.5 0.00 3.68 1.45 72 1019.0
20240221221128 15 237 4.8 12.9 0.00 3.68 1.45 73 1019.0
20240221220628 15 202 6.4 9.7 0.00 3.68 1.45 72 1019.0
20240221220132 15 117 3.2 9.7 0.00 3.68 1.45 73 1019.1
20240221215631 14 176 3.2 9.7 0.00 3.68 1.45 73 1019.1
20240221215134 14 144 1.6 12.9 0.00 3.68 1.45 74 1019.1
20240221214633 14 111 6.4 12.9 0.00 3.68 1.45 74 1019.1
20240221214136 14 146 1.6 9.7 0.00 3.68 1.45 73 1019.1
20240221213700 14 137 1.6 8.0 0.00 3.68 1.45 73 1019.1
20240221213124 14 94 3.2 9.7 0.00 3.68 1.45 71 1019.1
20240221212623 14 109 1.6 9.7 0.00 3.68 1.45 71 1019.1
20240221212126 14 32 3.2 6.4 0.00 4.14 1.45 71 1019.1
20240221211626 14 320 1.6 8.0 0.00 4.14 1.45 71 1019.3
20240221211128 14 106 3.2 9.7 0.00 4.14 1.45 73 1019.3
20240221210630 13 93 1.6 9.7 0.00 4.14 1.45 74 1019.3
20240221210133 13 141 3.2 8.0 0.00 4.14 1.45 74 1019.3
20240221205633 13 130 0.0 11.3 0.00 4.14 1.45 75 1019.3
20240221205135 13 132 1.6 11.3 0.00 4.14 1.45 74 1019.3
20240221204635 13 137 4.8 9.7 0.00 4.14 1.45 74 1019.6
20240221204138 13 110 3.2 8.0 0.00 4.14 1.45 73 1019.6
20240221203619 13 204 0.0 3.2 0.00 4.14 1.45 74 1019.6
20240221203129 13 136 0.0 3.2 0.00 4.14 1.45 73 1019.8
20240221202628 13 135 1.6 3.2 0.00 4.14 1.45 74 1019.8
20240221202131 13 226 0.0 3.2 0.00 4.32 1.45 75 1019.8
20240221201630 13 264 1.6 8.0 0.00 4.32 1.45 76 1019.9
20240221201136 13 171 4.8 8.0 0.00 4.32 1.45 74 1019.9
20240221200659 13 214 1.6 8.0 0.00 4.32 1.45 72 1019.9
20240221200121 12 139 0.0 0.0 0.00 4.32 1.45 1019.9
20240221195621 12 139 0.0 0.0 0.00 4.32 1.45 1019.9
20240221195124 12 139 0.0 0.0 0.00 4.32 1.45 1019.9
20240221194623 12 139 0.0 0.0 0.00 4.32 1.45 1019.9
20240221194126 12 140 0.0 0.0 0.00 4.32 1.45 1019.9
20240221193626 12 140 0.0 0.0 0.00 4.32 1.45 1019.9
20240221193152 11 202 0.0 0.0 0.00 4.32 1.45 1020.1
20240221192630 11 202 0.0 8.0 0.00 4.32 1.45 1020.1
20240221192137 11 202 0.0 8.0 0.00 4.32 1.45 1020.1
20240221191636 11 136 0.0 0.0 0.00 4.32 1.45 1020.0
20240221191122 11 136 0.0 0.0 0.00 4.32 1.45 1020.0
20240221190621 11 136 0.0 0.0 0.00 4.32 1.45 1020.0
20240221190147 11 136 0.0 0.0 0.00 4.32 1.45 1020.1
20240221185646 11 136 0.0 0.0 0.00 4.32 1.45 1020.1
20240221185127 10 136 0.0 0.0 0.00 4.32 1.45 1020.1
20240221184626 10 136 0.0 0.0 0.00 4.32 1.45 1020.2
20240221184129 10 136 0.0 0.0 0.00 4.32 1.45 1020.2
20240221183648 10 136 0.0 3.2 0.00 4.32 1.45 1020.2
20240221183130 10 164 0.0 8.0 0.00 4.32 1.45 1020.0
20240221182630 10 119 0.0 8.0 0.00 4.32 1.45 1020.0
20240221182156 10 150 0.0 4.8 0.00 4.39 1.45 1020.0
20240221181635 10 138 0.0 8.0 0.00 4.39 1.45 1019.5
20240221181138 10 195 0.0 8.0 0.00 4.39 1.45 1019.5
20240221180621 10 119 4.8 8.0 0.00 4.39 1.45 1019.5
20240221180123 10 145 3.2 6.4 0.00 4.39 1.45 1019.2
20240221175643 10 159 0.0 3.2 0.00 4.39 1.45 1019.2
20240221175124 10 154 0.0 6.4 0.00 4.39 1.45 1019.2
20240221174623 10 121 1.6 6.4 0.00 4.39 1.45 1018.9
20240221174126 10 150 0.0 8.0 0.00 4.39 1.45 1018.9
20240221173625 10 159 3.2 8.0 0.00 4.39 1.45 1018.9
20240221173128 9 199 0.0 3.2 0.00 4.39 1.45 1018.6
20240221172627 9 215 0.0 0.0 0.00 4.39 1.45 1018.6
20240221172130 9 338 0.0 0.0 0.00 4.47 1.45 1018.6
20240221171629 9 338 0.0 1.6 0.00 4.47 1.45 1018.5
20240221171133 9 338 0.0 1.6 0.00 4.47 1.45 1018.5
20240221170635 9 338 0.0 0.0 0.00 4.47 1.45 1018.5
20240221170122 9 338 0.0 0.0 0.00 4.47 1.45 1018.4
20240221165640 9 338 0.0 0.0 0.00 4.47 1.45 1018.4
20240221165123 8 338 0.0 0.0 0.00 4.47 1.45 1018.4
20240221164623 9 338 0.0 0.0 0.00 4.47 1.45 1018.0
20240221164126 9 338 0.0 0.0 0.00 4.47 1.45 1018.0
20240221163645 8 338 0.0 0.0 0.00 4.47 1.45 1018.0
20240221163150 8 338 0.0 0.0 0.00 4.47 1.45 1018.0
20240221162628 8 338 0.0 0.0 0.00 4.47 1.45 1018.0
20240221162131 8 338 0.0 0.0 0.00 4.55 1.45 1018.0
20240221161630 8 338 0.0 0.0 0.00 4.55 1.45 1017.8
20240221161136 8 338 0.0 0.0 0.00 4.55 1.45 1017.8
20240221160635 8 338 0.0 0.0 0.00 4.55 1.45 1017.8
20240221160137 8 338 0.0 0.0 0.00 4.55 1.45 1017.9
20240221155636 7 338 0.0 0.0 0.00 4.55 1.45 1017.9
20240221155122 7 338 0.0 0.0 0.00 4.55 1.45 1017.9
20240221154621 7 338 0.0 0.0 0.00 4.55 1.45 1017.0
20240221154127 7 338 0.0 0.0 0.00 4.55 1.45 1017.0
20240221153626 7 338 0.0 4.8 0.00 4.55 1.45 1017.0
20240221153129 7 338 0.0 4.8 0.00 4.55 1.45 1017.3
20240221152631 7 338 0.0 1.6 0.00 4.55 1.45 1017.3
20240221152134 7 338 0.0 1.6 0.00 4.60 1.45 1017.3
20240221151633 7 338 0.0 0.0 0.00 4.60 1.45 1017.2
20240221151136 7 338 0.0 0.0 0.00 4.60 1.45 1017.2
20240221150636 7 338 0.0 0.0 0.00 4.60 1.45 1017.2
20240221150139 6 338 0.0 0.0 0.00 4.60 1.45 1016.6
20240221145702 6 338 0.0 0.0 0.00 4.60 1.45 1016.6
20240221145144 6 338 0.0 3.2 0.00 4.60 1.45 1016.6
20240221144625 6 338 0.0 3.2 0.00 4.60 1.45 1016.2
20240221144132 6 29 0.0 0.0 0.00 4.60 1.45 1016.2
20240221143631 6 29 0.0 0.0 0.00 4.60 1.45 1016.2
20240221143134 6 29 0.0 0.0 0.00 4.60 1.45 1015.6
20240221142656 6 29 0.0 0.0 0.00 4.60 1.45 1015.6
20240221142138 6 29 0.0 0.0 0.00 4.62 1.45 1015.6
20240221141638 6 29 0.0 0.0 0.00 4.62 1.45 1015.1
20240221141121 6 29 0.0 0.0 0.00 4.62 1.45 1015.1
20240221140641 7 29 0.0 0.0 0.03 4.62 1.45 1015.1
20240221140123 7 29 0.0 0.0 0.03 4.62 1.45 1015.1
20240221135622 7 29 0.0 0.0 0.03 4.62 1.45 1015.1
20240221135146 7 29 0.0 0.0 0.05 4.62 1.45 1015.1
20240221134628 7 29 0.0 0.0 0.05 4.62 1.45 1015.6
20240221134130 7 29 0.0 0.0 0.08 4.62 1.45 1015.6
20240221133630 7 29 0.0 8.0 0.13 4.62 1.45 1015.6
20240221133136 7 29 0.0 8.0 0.15 4.62 1.45 1015.2
20240221132701 7 76 0.0 0.0 0.18 4.62 1.45 1015.2
20240221132123 7 76 0.0 0.0 0.20 4.67 1.45 1015.2
20240221131642 7 76 0.0 6.4 0.23 4.67 1.45 1015.5
20240221131124 7 29 0.0 9.7 0.25 4.67 1.45 1015.5
20240221130624 7 59 0.0 0.0 0.28 4.65 1.42 1015.5
20240221130128 7 314 0.0 0.0 0.30 4.65 1.42 1015.9
20240221125627 7 314 0.0 0.0 0.36 4.65 1.42 1015.9
20240221125151 7 314 0.0 0.0 0.41 4.62 1.40 1015.9
20240221124632 7 314 0.0 0.0 0.46 4.62 1.40 1017.0
20240221124135 7 314 0.0 1.6 0.48 4.60 1.37 1017.0
20240221123634 7 336 0.0 0.0 0.48 4.55 1.32 1017.0
20240221123137 7 336 0.0 0.0 0.56 4.52 1.30 1017.0
20240221122636 7 336 0.0 0.0 0.53 4.50 1.27 1017.0
20240221122126 7 336 0.0 0.0 0.56 4.65 1.24 1017.0
20240221121627 7 336 0.0 0.0 0.58 4.62 1.22 1017.0
20240221121130 7 335 0.0 0.0 0.61 4.60 1.19 1017.0
20240221120629 7 335 0.0 0.0 0.66 4.57 1.17 1017.0
20240221120132 7 335 0.0 0.0 0.66 4.52 1.12 1016.9
20240221115634 7 335 0.0 0.0 0.66 4.47 1.07 1016.9
20240221115136 7 335 0.0 0.0 0.69 4.39 0.99 1016.9
20240221114636 7 335 0.0 0.0 0.69 4.34 0.94 1016.9
20240221114138 7 335 0.0 0.0 0.71 4.29 0.89 1016.9
20240221113637 7 337 0.0 0.0 0.74 4.24 0.84 1016.9
20240221113120 7 327 0.0 0.0 0.66 4.14 0.74 1016.4
20240221112623 7 327 0.0 14.5 0.69 4.14 0.74 1016.4
20240221112129 8 355 1.6 14.5 0.64 4.09 0.69 1016.4
20240221111628 8 308 3.2 12.9 0.58 4.04 0.64 1016.2